Latest Coastal Weather Observations for King Island Airport

IDV60701

Issued at 3:15 am EST Thursday 24 April 2014 (issued every 10 minutes, with the page automatically refreshed every 10 minutes)

About coastal observations | Map of coastal stations | Coastal observations for VIC | Marine services | Other Formats
Station Details ID: 098017 Name: KING ISLAND AIRPORT Lat: -39.88 Lon: 143.88 Height: 37.0 m
Data from the previous 72 hours. | See also: Recent months at King Island Airport
Date/Time
EST
Temp

°C
Wind Pressure Rain
since 9am
mm
Weather Cloud Vis
km
Sea
Height
m
Swell
Dir
 
Speed
knots
Gust
knots
hPa Trend Height
m
Period
s
Dir
24/03:00am 12.0 W 20 38 1006.3 - 2.2 - Cloudy 4 - - - -
24/02:59am 12.1 W 20 38 1006.3 - 1.0 - Partly cloudy 5 - - - -
24/02:55am 13.5 W 24 39 1006.4 - 0.0 - Partly cloudy 10 - - - -
24/02:30am 15.7 NW 28 39 1005.6 - 0.0 - Partly cloudy 10 - - - -
24/02:23am 15.5 NW 27 39 1005.7 - 0.0 - Partly cloudy 10 - - - -
24/02:00am 15.8 NW 27 34 1005.8 - 0.0 - Partly cloudy 10 - - - -
24/01:50am 15.7 NW 28 38 1005.9 - 0.0 - Partly cloudy 10 - - - -
24/01:30am 15.7 NW 29 37 1006.2 - 0.0 - Partly cloudy 10 - - - -
24/01:22am 15.9 NW 25 35 1006.3 - 0.0 - Partly cloudy 10 - - - -
24/01:00am 15.8 NNW 27 34 1006.6 - 0.0 - Partly cloudy 10 - - - -
24/12:30am 15.5 NNW 22 31 1006.9 - 0.0 - Partly cloudy 10 - - - -
24/12:00am 16.0 NNW 25 33 1007.4 - 0.0 - Cloudy 10 - - - -
 
Date/Time
EST
Temp

°C
Wind Pressure Rain
since 9am
mm
Weather Cloud Vis
km
Sea
Height
m
Swell
Dir
 
Speed
knots
Gust
knots
hPa Trend Height
m
Period
s
Dir
23/11:30pm 15.9 NNW 22 30 1007.9 - 0.0 - Partly cloudy 10 - - - -
23/11:00pm 15.5 NNW 17 24 1008.4 - 0.0 - Partly cloudy 10 - - - -
23/10:30pm 15.5 N 17 23 1008.9 - 0.0 - Partly cloudy 10 - - - -
23/10:00pm 15.1 NNW 19 25 1009.3 - 0.0 - Partly cloudy 10 - - - -
23/09:30pm 15.1 NNW 17 22 1009.6 - 0.0 - Partly cloudy 10 - - - -
23/09:00pm 15.2 NNW 19 24 1010.0 - 0.0 - Mostly clear 10 - - - -
23/08:30pm 14.8 NNW 19 25 1010.3 - 0.0 - Partly cloudy 10 - - - -
23/08:00pm 15.0 NNW 19 27 1010.6 - 0.0 - Partly cloudy 10 - - - -
23/07:30pm 15.1 NNW 19 25 1010.7 - 0.0 - Partly cloudy 10 - - - -
23/07:00pm 14.8 NW 18 24 1010.8 - 0.0 - Partly cloudy 10 - - - -
23/06:30pm 14.6 NW 18 24 1011.0 - 0.0 - Partly cloudy 10 - - - -
23/06:00pm 14.7 NW 19 22 1011.1 - 0.0 - Cloudy 10 - - - -
23/05:30pm 14.8 NW 19 23 1011.1 - 0.0 - Partly cloudy 10 - - - -
23/05:00pm 15.0 NW 17 23 1011.2 - 0.0 - Partly cloudy 10 - - - -
23/04:30pm 15.0 NW 18 23 1011.5 - 0.0 - Partly cloudy 10 - - - -
23/04:00pm 15.1 NW 19 22 1011.7 - 0.0 - Partly cloudy 10 - - - -
23/03:30pm 15.9 NNW 19 23 1011.8 - 0.0 - Partly cloudy 10 - - - -
23/03:00pm 15.6 NW 18 22 1012.0 - 0.0 - Partly cloudy 10 - - - -
23/02:30pm 15.5 NNW 21 27 1012.3 - 0.0 - Partly cloudy 10 - - - -
23/02:00pm 15.3 NNW 19 27 1012.5 - 0.0 - Partly cloudy 10 - - - -
23/01:30pm 16.3 NNW 19 22 1012.7 - 0.0 - Partly cloudy 10 - - - -
23/01:00pm 16.2 NW 18 21 1013.0 - 0.0 - - 10 - - - -
23/12:30pm 15.5 NNW 16 19 1013.4 - 0.0 - - 10 - - - -
23/12:00pm 15.2 NW 17 21 1014.0 - 0.0 - - 10 - - - -
23/11:30am 15.9 NW 18 24 1014.5 - 0.0 - Partly cloudy 10 - - - -
23/11:00am 16.0 NW 18 21 1014.8 - 0.0 - Partly cloudy 10 - - - -
23/10:30am 16.0 NW 15 18 1015.1 - 0.0 - Partly cloudy 10 - - - -
23/10:00am 15.5 NW 14 18 1015.2 - 0.0 - Partly cloudy 10 - - - -
23/09:30am 15.1 NW 12 15 1015.2 - 0.0 - Partly cloudy 10 - - - -
23/09:00am 13.4 NE 3 10 1015.3 - 1.0 - Mostly clear 10 - - - -
23/08:30am 11.2 E 4 5 1015.3 - 1.0 - Partly cloudy 10 - - - -
23/08:00am 9.7 E 5 5 1015.5 - 1.0 - Partly cloudy 10 - - - -
23/07:30am 9.2 E 5 5 1015.4 - 1.0 - Partly cloudy 10 - - - -
23/07:00am 9.9 SE 3 5 1015.3 - 1.0 - Partly cloudy 10 - - - -
23/06:30am 10.3 W 2 7 1015.3 - 1.0 - Partly cloudy 10 - - - -
23/06:00am 9.4 ESE 5 6 1015.1 - 0.8 - Cloudy 10 - - - -
23/05:30am 8.5 ESE 6 6 1015.2 - 0.8 - Partly cloudy 10 - - - -
23/05:00am 7.8 CALM 0 4 1015.3 - 0.8 - Partly cloudy 10 - - - -
23/04:57am 7.5 CALM 0 0 1015.3 - 0.8 - Partly cloudy 10 - - - -
23/04:40am 8.1 E 4 4 1015.3 - 0.8 - Partly cloudy 5 - - - -
23/04:31am 9.0 E 4 4 1015.3 - 0.8 - Partly cloudy 10 - - - -
23/04:30am 9.1 E 4 4 1015.3 - 0.8 - Partly cloudy 10 - - - -
23/04:01am 8.9 NNE 2 5 1015.2 - 0.8 - Partly cloudy 5 - - - -
23/04:00am 9.0 NNE 1 5 1015.2 - 0.8 - Partly cloudy 6 - - - -
23/03:30am 10.8 S 4 5 1015.1 - 0.8 - Partly cloudy 10 - - - -
23/03:00am 10.8 SE 4 5 1015.3 - 0.8 - Mostly cloudy 10 - - - -
23/02:30am 12.2 SW 3 10 1015.7 - 0.6 - Partly cloudy 8 - - - -
23/02:00am 11.9 WSW 3 4 1015.8 - 0.4 - Partly cloudy 10 - - - -
23/01:30am 12.7 W 6 8 1016.1 - 0.4 - Partly cloudy 10 - - - -
23/01:00am 12.2 NE 2 14 1016.4 - 0.4 - Partly cloudy 10 - - - -
23/12:30am 9.7 CALM 0 4 1016.5 - 0.4 - Partly cloudy 10 - - - -
23/12:00am 12.0 W 5 7 1016.6 - 0.4 - - 10 - - - -
 
Date/Time
EST
Temp

°C
Wind Pressure Rain
since 9am
mm
Weather Cloud Vis
km
Sea
Height
m
Swell
Dir
 
Speed
knots
Gust
knots
hPa Trend Height
m
Period
s
Dir
22/11:30pm 12.2 SW 5 6 1016.6 - 0.4 - Partly cloudy 10 - - - -
22/11:00pm 13.2 WSW 8 9 1017.0 - 0.4 - Partly cloudy 10 - - - -
22/10:30pm 12.9 W 6 8 1017.0 - 0.4 - Partly cloudy 10 - - - -
22/10:00pm 13.1 W 8 10 1017.0 - 0.2 - Partly cloudy 10 - - - -
22/09:30pm 13.4 W 8 10 1016.6 - 0.2 - Partly cloudy 10 - - - -
22/09:00pm 13.6 W 9 12 1016.6 - 0.2 - Partly cloudy 10 - - - -
22/08:30pm 13.2 W 9 11 1016.3 - 0.2 - - 10 - - - -
22/08:00pm 14.0 W 10 14 1016.2 - 0.2 - Partly cloudy 10 - - - -
22/07:30pm 13.7 W 12 17 1016.0 - 0.2 - Partly cloudy 10 - - - -
22/07:00pm 13.7 W 9 17 1015.8 - 0.2 - Partly cloudy 10 - - - -
22/06:30pm 13.4 W 9 13 1015.5 - 0.2 - Partly cloudy 10 - - - -
22/06:00pm 12.9 W 7 9 1015.2 - 0.0 - Cloudy 10 - - - -
22/05:30pm 13.9 W 9 13 1014.9 - 0.0 - Partly cloudy 10 - - - -
22/05:00pm 14.2 W 9 11 1014.6 - 0.0 - - 10 - - - -
22/04:30pm 14.9 WSW 11 16 1014.6 - 0.0 - Partly cloudy 10 - - - -
22/04:00pm 16.1 W 12 17 1014.4 - 0.0 - Partly cloudy 10 - - - -
22/03:30pm 15.6 W 12 17 1014.3 - 0.0 - Partly cloudy 10 - - - -
22/03:00pm 15.6 W 12 18 1014.2 - 0.0 - Mostly clear 10 - - - -
22/02:30pm 16.3 W 13 17 1014.0 - 0.0 - - 10 - - - -
22/02:00pm 16.2 WSW 14 20 1013.9 - 0.0 - - 10 - - - -
22/01:30pm 16.5 W 13 17 1013.8 - 0.0 - Partly cloudy 10 - - - -
22/01:00pm 16.2 W 14 19 1013.9 - 0.0 - Partly cloudy 10 - - - -
22/12:30pm 16.2 W 14 18 1014.1 - 0.0 - Partly cloudy 10 - - - -
22/12:00pm 16.1 WSW 12 17 1014.0 - 0.0 - Mostly clear 10 - - - -
22/11:30am 15.7 WSW 13 17 1014.0 - 0.0 - Partly cloudy 10 - - - -
22/11:00am 15.8 WSW 13 18 1013.8 - 0.0 - Partly cloudy 10 - - - -
22/10:30am 15.6 WSW 13 16 1013.5 - 0.0 - - 10 - - - -
22/10:00am 15.4 WSW 13 19 1013.3 - 0.0 - Partly cloudy 10 - - - -
22/09:30am 15.0 WSW 13 17 1013.1 - 0.0 - Partly cloudy 10 - - - -
22/09:00am 14.7 WSW 12 19 1012.7 - 4.8 - Cloudy 10 - - - -
22/08:30am 14.7 WSW 13 17 1012.2 - 4.8 - Partly cloudy 10 - - - -
22/08:00am 14.5 SW 13 18 1011.8 - 4.8 - Partly cloudy 10 - - - -
22/07:30am 14.6 WSW 13 18 1011.1 - 4.8 - Partly cloudy 10 - - - -
22/07:00am 14.7 WSW 12 18 1010.8 - 4.8 - Partly cloudy 10 - - - -
22/06:30am 15.0 WSW 13 21 1010.1 - 4.8 - Partly cloudy 10 - - - -
22/06:00am 15.5 WSW 9 14 1009.7 - 4.8 - Cloudy 10 - - - -
22/05:30am 15.3 W 9 14 1009.5 - 4.8 - Partly cloudy 10 - - - -
22/05:00am 15.7 W 12 17 1009.6 - 4.8 - Partly cloudy 10 - - - -
22/04:34am 15.8 WNW 13 18 1009.1 - 4.8 - Partly cloudy 9 - - - -
22/04:30am 15.9 WNW 13 16 1009.1 - 4.8 - Partly cloudy 9 - - - -
22/04:00am 16.0 WNW 18 22 1008.9 - 4.8 - Partly cloudy 9 - - - -
22/03:44am 15.7 NW 22 32 1008.7 - 4.6 - Partly cloudy 7 - - - -
22/03:38am 15.9 NW 22 29 1008.6 - 4.6 - Partly cloudy 7 - - - -
22/03:30am 16.1 NW 22 29 1008.7 - 4.4 - Partly cloudy 6 - - - -
22/03:18am 15.8 NNW 21 31 1008.7 - 4.0 - Partly cloudy 5 - - - -
22/03:09am 16.1 NNW 21 26 1008.7 - 3.6 - Partly cloudy 5 - - - -
22/03:00am 15.6 NNW 22 28 1008.8 - 3.0 - Cloudy 6 - - - -
22/02:54am 15.6 NNW 24 31 1008.9 - 3.0 - Partly cloudy 7 - - - -
22/02:40am 16.6 NW 24 29 1009.0 - 2.8 - Partly cloudy 5 - - - -
22/02:34am 16.8 NW 26 33 1009.0 - 2.6 - Partly cloudy 7 - - - -
22/02:32am 16.9 NW 26 33 1008.9 - 2.6 - Partly cloudy 7 - - - -
22/02:30am 16.9 NW 27 33 1009.0 - 2.6 - Partly cloudy 7 - - - -
22/02:09am 17.0 NW 26 33 1008.5 - 2.0 - Partly cloudy 5 - - - -
22/02:00am 17.5 NNW 25 34 1008.5 - 1.6 - Partly cloudy 10 - - - -
22/01:44am 17.7 NNW 23 33 1008.6 - 1.6 - Partly cloudy 10 - - - -
22/01:30am 17.5 NNW 19 24 1008.5 - 1.6 - Partly cloudy 10 - - - -
22/01:00am 17.5 NNW 21 27 1008.8 - 1.6 - Partly cloudy 10 - - - -
22/12:30am 17.8 NNW 22 31 1008.6 - 1.6 - Partly cloudy 10 - - - -
22/12:00am 17.3 N 24 34 1008.4 - 1.6 - Mostly clear 10 - - - -
 
Date/Time
EST
Temp

°C
Wind Pressure Rain
since 9am
mm
Weather Cloud Vis
km
Sea
Height
m
Swell
Dir
 
Speed
knots
Gust
knots
hPa Trend Height
m
Period
s
Dir
21/11:50pm 17.3 N 23 35 1008.4 - 1.6 - Partly cloudy 10 - - - -
21/11:30pm 17.2 N 25 33 1008.5 - 1.6 - - 10 - - - -
21/11:25pm 17.2 N 26 36 1008.5 - 1.6 - - 10 - - - -
21/11:00pm 17.4 N 23 32 1008.7 - 1.6 - Partly cloudy 10 - - - -
21/10:30pm 17.2 N 25 35 1008.7 - 1.6 - - 10 - - - -
21/10:00pm 17.6 N 25 33 1008.8 - 1.6 - - 10 - - - -
21/09:30pm 18.4 N 24 31 1008.9 - 1.6 - Partly cloudy 10 - - - -
21/09:00pm 18.4 N 25 33 1008.5 - 1.6 - Mostly clear 10 - - - -
21/08:30pm 18.2 N 24 33 1008.6 - 1.6 - Partly cloudy 10 - - - -
21/08:00pm 18.5 N 24 35 1008.7 - 1.6 - Cloudy 10 - - - -
21/07:57pm 18.3 N 23 34 1008.7 - 1.6 - Cloudy 10 - - - -
21/07:30pm 19.1 N 26 34 1008.4 - 1.6 - Partly cloudy 10 - - - -
21/07:00pm 18.9 N 22 31 1008.0 - 1.6 - Partly cloudy 10 - - - -
21/06:35pm 18.4 N 17 27 1008.1 - 1.6 - Partly cloudy 10 - - - -
21/06:30pm 18.3 N 17 22 1008.0 - 1.6 - Partly cloudy 10 - - - -
21/06:00pm 17.3 NNE 14 18 1008.1 - 1.6 - Cloudy 10 - - - -
21/05:30pm 16.7 NNE 13 17 1008.5 - 1.6 - Cloudy 10 - - - -
21/05:00pm 15.7 NE 12 16 1008.7 - 1.6 - Partly cloudy 10 - - - -
21/04:30pm 15.4 NE 12 17 1009.0 - 1.6 - Partly cloudy 10 - - - -
21/04:00pm 15.3 NE 14 19 1009.4 - 1.6 - Partly cloudy 10 - - - -
21/03:30pm 15.6 NE 15 20 1010.0 - 1.6 - - 10 - - - -
21/03:00pm 15.5 NE 13 18 1010.6 - 1.6 - Mostly clear 10 - - - -
21/02:30pm 14.9 NNE 10 13 1011.3 - 1.6 - Partly cloudy 10 - - - -
21/02:00pm 14.8 N 10 14 1012.3 - 1.4 - Partly cloudy 10 - - - -
21/01:30pm 14.6 N 7 10 1013.0 - 1.4 - Partly cloudy 10 - - - -
21/01:00pm 14.8 NNW 8 12 1013.8 - 1.4 - Partly cloudy 10 - - - -
21/12:30pm 14.1 NNW 13 16 1014.6 - 1.4 - Partly cloudy 10 - - - -
21/12:00pm 15.1 NNW 13 17 1014.6 - 1.0 - Cloudy 10 - - - -
21/11:30am 15.1 NNW 15 21 1014.6 - 1.0 - Partly cloudy 10 - - - -
21/11:00am 15.2 NNW 14 17 1014.9 - 0.4 - Partly cloudy 10 - - - -
21/10:33am 15.2 NNW 17 22 1015.3 - 0.2 - Partly cloudy 10 - - - -
21/10:30am 15.2 NNW 17 21 1015.4 - 0.2 - Partly cloudy 10 - - - -
21/10:22am 15.2 NNW 15 19 1015.3 - 0.2 - Partly cloudy 10 - - - -
21/10:00am 13.9 E 4 6 1015.4 - 0.2 - Partly cloudy 10 - - - -
21/09:30am 13.3 E 7 9 1015.5 - 0.2 - Partly cloudy 10 - - - -
21/09:27am 13.3 ESE 7 9 1015.5 - 0.2 - Partly cloudy 10 - - - -
21/09:21am 13.2 ESE 7 9 1015.6 - 0.0 - Partly cloudy 10 - - - -
21/09:13am 13.2 ESE 6 8 1015.7 - 0.0 - Partly cloudy 7 - - - -
21/09:00am 13.1 ENE 6 7 1015.6 - 7.4 - Cloudy 3 - - - -
21/08:49am 13.0 E 7 10 1016.1 - 6.6 - Partly cloudy 4 - - - -
21/08:44am 13.0 E 9 11 1015.9 - 6.4 - Partly cloudy 5 - - - -
21/08:30am 13.0 E 9 12 1015.9 - 6.2 - Partly cloudy 10 - - - -
21/08:15am 12.7 ESE 11 16 1016.0 - 6.2 - Partly cloudy 10 - - - -
21/08:00am 12.5 SE 5 11 1015.9 - 6.2 - Partly cloudy 10 - - - -
21/07:30am 12.1 E 6 10 1015.7 - 6.2 - Partly cloudy 10 - - - -
21/07:00am 11.7 E 9 14 1015.7 - 6.2 - Partly cloudy 10 - - - -
21/06:30am 11.6 E 9 12 1016.0 - 6.2 - Partly cloudy 10 - - - -
21/06:00am 11.5 E 9 12 1016.1 - 6.0 - Mostly cloudy 10 - - - -
21/05:30am 11.3 E 6 10 1015.8 - 6.0 - Partly cloudy 10 - - - -
21/05:19am 11.2 ESE 5 7 1015.9 - 6.0 - Partly cloudy 10 - - - -
21/05:01am 11.1 ESE 7 10 1015.8 - 6.0 - Partly cloudy 5 - - - -
21/05:00am 11.1 SE 7 10 1015.8 - 6.0 - Partly cloudy 6 - - - -
21/04:48am 11.1 SE 9 10 1016.0 - 6.0 - Partly cloudy 9 - - - -
21/04:30am 11.1 SE 6 8 1015.9 - 6.0 - Cloudy 4 - - - -
21/04:00am 11.1 ESE 6 8 1015.9 - 5.4 - Partly cloudy 5 - - - -
21/03:30am 11.1 SE 6 8 1015.8 - 5.2 - Partly cloudy 10 - - - -

Other Formats:

Comma delimited format used in spreadsheet applications
http://www.bom.gov.au/fwo/IDV60701/IDV60701.94850.axf

JavaScript Object Notation format (JSON) in row-major order
http://www.bom.gov.au/fwo/IDV60701/IDV60701.94850.json